BREEZE-M DEB (TANK), 40366

Orbit data source: Space-Track

BREEZE-M DEB (TANK), 40366 is space debris in HEO originally from a launch on Sat, 27 Dec 2014 UTC launched from the Tyuratam Missile And Space Complex (TTMTR). Debris objects in space refer to the collection of defunct objects orbiting the Earth. Examples of debris include non-operational satellites, rocket bodies, and fragments generated from explosions, collisions, or faulty payload assembly.

Loading next visibility...
Identifier
40366, 2014-089C
Orbit
HEO
Country
Flag of CISCIS
Related business
Manufacturer
Khrunichev
Mission
Spacecraft
Bus & Motor
BRIZ TANK, Unknown motor
Mass
~1,000 kg wet, 1,000 kg dry
Launch date (UTC)
2014-12-27 (11 years ago)
Launch vehicle
Unknown
Launch site
Tyuratam Missile And Space Complex (TTMTR)
Object type
Payload
Rocket body
Debris
Shape & HBR
Torus, 2.0 m
Radar Cross Section
8.218 m², Large (>1 m²)

Expand to show TLE details & history
Last TLE update: 3 days ago

TLE from 3 days ago
0 BREEZE-M DEB (TANK)
1 40366U 14089C   26170.79940338  .00000775  00000-0  25170-3 0  9997
2 40366  49.5705  34.3531 5123408 261.3625  39.9290  5.37062296219866
Epoch: 2026-06-19T19:11Z
TLE epoch observation values (Epoch: 2026-06-19T19:11:08.452Z)
Latitude
-0.00004°
Longitude
-161.44129°
Altitude
4,635.467 km
Speed
6.592 km/s
True Right ascension
02h 17m 28s
True Declination
0° 00' 00"
Sunlit
Object was in daylight at epoch
Visualization orbit readout
Latitude
Unknown
Longitude
Unknown
Altitude
Unknown
Speed
Unknown
Apparent Right ascension
Unknown
Apparent Declination
Unknown
Sunlit
N/A
Visualization observer readout
Local Sidereal Time
21:34:25
Azimuth
Unknown
Elevation
Unknown
Doppler factor
Unknown
Orbital elements
Apogee altitude
14,453.473 km
Perigee altitude
339.083 km
Semi-major axis
13,774.415 km
Eccentricity
0.51234
Inclination
49.5705°
RAAN
34.3531°
Arg. of periapsis
261.3625°
True anomaly
98.67897°
Mean anomaly
39.929°
Eccentric anomaly
66.93795°
Mean motion
1.34256 °/min
Orbital period
268.14 mins
BSTAR
0.0002517
Loading maneuver chart data...
Computing Atmospheric mass density...
Loading historical data...
Loading historical data...
Loading historical data...
Loading historical data...
Loading historical data...
Loading historical data...
Loading historical data...
Other satellites on launch #89 in the year 2014 (2014-12-27 UTC)

Documentation

Showing up to 5 results
|